Location: Banios
(43.0451°N, 0.2335°E)
Time: 00:06:35
(UTC+00:00)

N. Korean satellite - Pass Details

Date: 01 December 2021
Orbit: 447 x 491 km, 97.3° (Epoch: 21 January)

Event Time Altitude Azimuth Distance (km) Brightness Sun altitude
Rises 16:50:57 0° 185° (S) 2,543 10.7 -5.0°
Reaches altitude 10° 16:53:07 10° 194° (SSW) 1,660 9.9 -5.3°
Maximum altitude 16:56:27 36° 262° (W) 774 8.4 -5.9°
Drops below altitude 10° 16:59:45 10° 331° (NNW) 1,649 9.3 -6.4°
Sets 17:01:55 0° 340° (NNW) 2,522 10.2 -6.8°
